Regional Weather Roundup
Issued by NWS Goodland, KS

Home | Current Version | Previous Version | Graphics & Text | Print | Product List | Glossary On
Versions: 1 2 3 4 5 6 7 8 9 10 11 12 13 14 15 16 17 18 19 20 21 22 23 24 25 26 27 28 29 30 31 32 33 34 35 36 37 38 39 40 41 42 43 44 45 46 47 48 49 50
000
ASUS43 KGLD 182159
RWRGLD

GOODLAND FORECAST AREA HOURLY WEATHER ROUNDUP
NATIONAL WEATHER SERVICE GOODLAND KS
400 PM MDT FRI AUG 18 2017

...OFFICIAL OBSERVATIONS...

CITY           SKY/WX    TMP DP  RH WIND       PRES   REMARKS
GOODLAND KS    SUNNY     86  53  32 NE8       30.07F
HILL CITY KS   SUNNY     91  60  35 NE9       29.99S
IMPERIAL NEB   SUNNY     87  41  19 CALM      30.05F
MCCOOK NEB     SUNNY     89  53  29 VRB5      30.00F
AKRON CO       SUNNY     85  41  21 SW3       30.12F
BURLINGTON CO  SUNNY     86  50  28 E5        30.11F
LIMON CO       SUNNY     84  42  22 SW6       30.17F
$$

...UNOFFICIAL OBSERVATIONS...

CITY           SKY/WX    TMP DP  RH WIND       PRES   REMARKS
LENORA KS        N/A     86  32  14 N6          N/A
NORTON KS      SUNNY     88  50  27 N5        29.99F
SHARON SPRINGS   N/A     88  62  41 NE8G16      N/A
TRENTON NEB      N/A     87  32  14 CALM        N/A
KIT CARSON CO    N/A     86  53  32 MISG        N/A
YUMA CO        FAIR      81  34  18 E6        30.10F
$$



USA.gov is the U.S. government's official web portal to all federal, state and local government web resources and services.